Location: Votelez
(50.0000°N, 15.0000°E)
Time: 17:30:14
(UTC+01:00)

Envisat - Visible Passes

Search period start: 14 February 2026 00:00
Search period end: 24 February 2026 00:00
Orbit: 761 x 763 km, 98.4° (Epoch: 13 February)

Date Brightness Start Highest point End Pass type
(mag) Time Alt. Az. Time Alt. Az. Time Alt. Az.
14 Feb 5.4 03:52:32 10° N 03:53:04 13° N 03:53:04 13° N visible
15 Feb 5.6 03:14:24 10° N 03:14:56 13° N 03:14:56 13° N visible
16 Feb 5.9 02:36:36 10° NNE 02:36:48 11° NNE 02:36:48 11° NNE visible
16 Feb 5.3 04:16:17 10° N 04:16:56 13° NNW 04:16:56 13° NNW visible
17 Feb 5.3 03:37:56 10° N 03:38:48 15° N 03:38:48 15° N visible
18 Feb 5.5 02:59:56 10° NNE 03:00:41 14° NNE 03:00:41 14° NNE visible
18 Feb 5.2 04:40:17 10° NNW 04:40:48 12° NNW 04:40:48 12° NNW visible
19 Feb 5.9 02:22:14 10° NNE 02:22:33 12° NNE 02:22:33 12° NNE visible
19 Feb 5.1 04:01:36 10° N 04:02:40 15° NNW 04:02:40 15° NNW visible
20 Feb 5.2 03:23:23 10° N 03:24:33 17° N 03:24:33 17° N visible
21 Feb 5.5 02:45:30 10° NNE 02:46:25 15° NNE 02:46:25 15° NNE visible
21 Feb 5.1 04:25:25 10° NNW 04:26:33 14° NNW 04:26:33 14° NNW visible
22 Feb 5.9 02:07:56 10° NNE 02:08:17 12° NNE 02:08:17 12° NNE visible
22 Feb 5.0 03:46:57 10° N 03:48:25 18° N 03:48:25 18° N visible
23 Feb 5.2 03:08:53 10° N 03:10:17 19° N 03:10:17 19° N visible
23 Feb 5.1 04:49:35 10° NNW 04:50:26 12° NNW 04:50:26 12° NNW visible
